[[{"header":{"parameterUnit":"m.s-1","parameterCategory":1,"la1":30.2991,"la2":30.254,"lo1":-89.0895,"lo2":-89.0444,"dy":0.0017,"dx":0.0017,"nx":28,"ny":28,"refTime":"2025-02-04T09:00:00:Z","depth":0,"parameterNumber":2,"parameterNumberName":"U-component_of_WINDS"},"data":[0,0,0,0,0,0,0,0,0,0,0,0,0,0,0,0,0,0,0,0,0,0,0,0,0,0,0,0,0,0,0,0,0,0,0,0,0,0,0,0,0,0,0,0,0,0,0,0,0,0,0,0,0,0,0,0,0,0,-0.8887,-0.8887,0,-0.887,-0.8869,-0.8869,-0.8844,-0.8844,-0.8843,-0.8843,-0.8824,-0.8824,-0.8823,0,0,0,0,0,0,0,0,0,0,0,0,0,-0.89,-0.89,-0.8887,-0.8887,-0.8887,-0.887,-0.8869,-0.8869,-0.8844,-0.8844,-0.8843,-0.8843,-0.8824,-0.8824,-0.8823,0,0,0,0,0,0,0,0,0,0,0,0,0,-0.889,-0.89,-0.8887,-0.8872,-0.8871,-0.887,-0.8869,-0.8869,-0.8844,-0.8844,-0.8843,-0.8842,-0.8824,-0.8824,-0.8823,-0.8835,0,0,-0.8823,-0.8823,0,0,0,0,0,0,0,0,-0.889,-0.8889,-0.8875,-0.8873,-0.8872,-0.8858,-0.8867,-0.8858,-0.8844,-0.8854,-0.8843,-0.8842,-0.8836,-0.8834,-0.8832,-0.8834,-0.8834,-0.8823,-0.8823,-0.8823,-0.8823,0,0,0,0,0,0,0,-0.8891,-0.889,-0.888,-0.8875,-0.8873,-0.8867,-0.8864,-0.8865,-0.8849,-0.8853,-0.8851,-0.885,-0.8835,-0.8833,-0.8832,-0.8833,-0.8823,-0.8823,-0.8823,-0.8823,-0.8845,-0.8845,0,0,0,0,0,0,-0.8894,-0.889,-0.8881,-0.888,-0.888,-0.8867,-0.8864,-0.8863,-0.8849,-0.8846,-0.885,-0.8849,-0.8833,-0.8832,-0.8831,-0.8844,-0.8823,-0.8823,-0.8822,-0.8844,-0.8845,-0.8845,0,0,0,0,0,0,-0.8894,-0.8893,-0.8882,-0.8885,-0.8883,-0.8867,-0.8866,-0.8863,-0.8861,-0.8846,-0.8843,-0.8851,-0.8833,-0.8831,-0.8835,-0.8843,-0.8822,-0.8822,-0.8843,-0.8844,-0.8845,-0.887,0,0,0,0,0,0,-0.8895,-0.8894,-0.8898,-0.8885,-0.8883,-0.8885,-0.8867,-0.8863,-0.8861,-0.8859,-0.8846,-0.8844,-0.8832,-0.8835,-0.8834,-0.8842,-0.8822,-0.8842,-0.8844,-0.8845,-0.8868,-0.8872,-0.8875,0,0,0,0,0,-0.8895,-0.8905,-0.8898,-0.8897,-0.8888,-0.8886,-0.8885,-0.8871,-0.8862,-0.8866,-0.8857,-0.8844,-0.8843,-0.8836,-0.8835,-0.8843,-0.8842,-0.8843,-0.8845,-0.8867,-0.8871,-0.8875,0,0,0,0,0,0,-0.8919,-0.8903,-0.8895,-0.8901,-0.8895,-0.8882,-0.8886,-0.8876,-0.8872,-0.887,-0.8853,-0.8851,-0.8856,-0.885,-0.8842,-0.8854,-0.884,-0.8842,-0.8857,-0.8861,-0.8864,-0.8865,-0.8822,0,0,0,0,0,-0.8925,-0.8925,-0.8911,-0.8918,-0.8915,-0.8902,-0.89,-0.8891,-0.8884,-0.8881,-0.8872,-0.8865,-0.8863,-0.8862,-0.8859,-0.8868,-0.8865,-0.8873,-0.8876,-0.8879,-0.888,-0.8884,-0.8888,-0.885,-0.885,-0.885,0,0,-0.8937,-0.8928,-0.8929,-0.8922,-0.8917,-0.8917,-0.8899,-0.89,-0.89,-0.8881,-0.8883,-0.8877,-0.8868,-0.8874,-0.8876,-0.8869,-0.889,-0.8881,-0.8883,-0.8883,-0.8886,-0.889,-0.8893,-0.8852,-0.8851,-0.8851,0,0,-0.8959,-0.8953,-0.8958,-0.8953,-0.8944,-0.8935,-0.8937,-0.8925,-0.892,-0.8922,-0.8908,-0.8908,-0.8905,-0.8899,-0.8896,-0.8918,-0.8907,-0.8918,-0.8934,-0.8938,-0.8941,-0.8944,-0.8951,-0.8954,-0.8919,-0.892,-0.892,0,-0.8975,-0.8975,-0.8961,-0.8964,-0.8961,-0.8944,-0.8949,-0.8945,-0.8936,-0.8935,-0.8927,-0.8923,-0.8917,-0.8921,-0.8927,-0.8925,-0.8926,-0.8919,-0.8942,-0.8945,-0.8947,-0.8954,-0.8957,-0.8921,-0.8921,-0.8921,-0.8921,0,-0.8995,-0.8995,-0.9,-0.8993,-0.8991,-0.8994,-0.8982,-0.8982,-0.8973,-0.8965,-0.8968,-0.896,-0.8955,-0.8956,-0.8947,-0.8959,-0.8955,-0.8945,-0.8931,-0.8952,-0.8958,-0.8961,-0.8923,-0.8922,-0.8922,-0.8922,0,0,-0.9029,-0.9016,-0.9018,-0.9014,-0.9004,-0.9004,-0.9008,-0.9004,-0.9004,-0.8999,-0.9001,-0.9,-0.8991,-0.8987,-0.8978,-0.8982,-0.9,-0.8971,-0.8971,-0.8977,-0.9013,-0.902,-0.9023,-0.8993,-0.8993,-0.8994,-0.9014,0,-0.9049,-0.9053,-0.9042,-0.9049,-0.905,-0.9035,-0.9037,-0.9032,-0.9025,-0.9024,-0.9017,-0.9016,-0.9004,-0.9002,-0.9005,-0.8997,-0.9007,-0.8996,-0.8994,-0.8994,-0.8996,-0.9027,-0.9034,-0.9053,-0.9016,-0.9017,-0.9017,0,-0.9072,-0.9069,-0.9076,-0.9067,-0.9066,-0.9069,-0.9065,-0.9065,-0.9059,-0.9053,-0.905,-0.904,-0.9042,-0.903,-0.9033,-0.9026,-0.9025,-0.9021,-0.9022,-0.902,-0.9006,-0.9025,-0.9059,-0.9062,-0.9021,-0.902,-0.902,0,-0.9096,-0.9094,-0.9098,-0.9095,-0.9085,-0.9087,-0.9083,-0.9076,-0.9075,-0.9071,-0.907,-0.9067,-0.9065,-0.9064,-0.9053,-0.9044,-0.9057,-0.9044,-0.9053,-0.9053,-0.9055,-0.9055,-0.9088,-0.9056,-0.9056,-0.9056,-0.9056,0,-0.9118,-0.9123,-0.9108,-0.9111,-0.9116,-0.9104,-0.911,-0.9104,-0.9098,-0.9099,-0.9086,-0.9088,-0.9074,-0.9074,-0.9065,-0.9069,-0.9069,-0.9064,-0.9062,-0.9065,-0.9065,-0.9063,-0.9061,-0.9057,-0.9057,-0.9056,-0.9056,0,-0.9145,-0.9136,-0.9139,-0.9129,-0.9127,-0.9131,-0.9123,-0.9125,-0.9118,-0.9119,-0.9119,-0.9108,-0.9107,-0.9097,-0.9093,-0.9088,-0.9095,-0.9091,-0.9097,-0.9095,-0.9105,-0.9104,-0.9137,-0.9141,-0.9107,-0.9107,-0.9108,0,-0.916,-0.9163,-0.9154,-0.9154,-0.9151,-0.9151,-0.915,-0.9138,-0.9137,-0.9131,-0.9134,-0.9133,-0.9131,-0.9131,-0.9122,-0.912,-0.9115,-0.9127,-0.9114,-0.9117,-0.9114,-0.9114,-0.9114,-0.9129,-0.9129,-0.9129,-0.913,0,-0.9186,-0.9182,-0.9181,-0.9178,-0.9177,-0.9175,-0.9171,-0.9172,-0.9159,-0.9159,-0.9159,-0.9157,-0.9155,-0.9153,-0.915,-0.9146,-0.9135,-0.9134,-0.9136,-0.9138,-0.9142,-0.914,-0.9103,-0.9133,-0.9133,-0.9132,-0.9132,-0.9132,-0.9207,-0.921,-0.9204,-0.9203,-0.92,-0.9197,-0.9198,-0.9192,-0.9191,-0.9188,-0.9182,-0.9183,-0.9177,-0.9172,-0.9168,-0.9169,-0.9162,-0.9165,-0.9166,-0.9166,-0.9168,-0.9143,-0.9168,-0.9168,-0.9168,-0.9168,-0.9168,0,-0.9232,-0.9228,-0.9228,-0.9224,-0.9223,-0.9215,-0.9211,-0.9211,-0.9212,-0.9208,-0.9207,-0.9206,-0.9205,-0.9198,-0.9196,-0.9198,-0.9193,-0.9197,-0.9196,-0.9196,-0.9174,-0.9172,-0.9201,-0.9201,-0.9201,-0.9201,-0.9201,-0.9201,-0.9246,-0.9249,-0.9244,-0.9247,-0.9242,-0.9243,-0.9242,-0.9239,-0.9236,-0.9236,-0.9236,-0.9231,-0.9225,-0.9223,-0.9222,-0.922,-0.9219,-0.9225,-0.9221,-0.92,-0.9197,-0.9194,-0.9192,-0.9225,-0.9225,-0.9243,-0.9243,-0.9243]},{"header":{"parameterUnit":"m.s-1","parameterCategory":1,"la1":30.2991,"la2":30.254,"lo1":-89.0895,"lo2":-89.0444,"dy":0.0017,"dx":0.0017,"nx":28,"ny":28,"refTime":"2025-02-04T09:00:00:Z","depth":0,"parameterNumber":3,"parameterNumberName":"V-component_of_WINDS"},"data":[0,0,0,0,0,0,0,0,0,0,0,0,0,0,0,0,0,0,0,0,0,0,0,0,0,0,0,0,0,0,0,0,0,0,0,0,0,0,0,0,0,0,0,0,0,0,0,0,0,0,0,0,0,0,0,0,0,0,1.7172,1.7172,0,1.7143,1.7143,1.7143,1.7163,1.7164,1.7164,1.7165,1.713,1.7128,1.7126,0,0,0,0,0,0,0,0,0,0,0,0,0,1.7242,1.724,1.7172,1.7172,1.7172,1.7143,1.7143,1.7143,1.7162,1.7164,1.7165,1.7166,1.713,1.7128,1.7126,0,0,0,0,0,0,0,0,0,0,0,0,0,1.7212,1.724,1.7172,1.7178,1.7179,1.7143,1.7143,1.7142,1.7162,1.7164,1.7165,1.7166,1.7131,1.7128,1.7126,1.7081,0,0,1.7118,1.7116,0,0,0,0,0,0,0,0,1.7213,1.7209,1.7178,1.7178,1.7178,1.7158,1.7154,1.7122,1.7162,1.7168,1.7165,1.7167,1.7138,1.7135,1.7126,1.708,1.7078,1.7117,1.7116,1.7114,1.7114,0,0,0,0,0,0,0,1.7215,1.7211,1.7161,1.7177,1.7177,1.7181,1.7179,1.7148,1.7145,1.7168,1.7169,1.7166,1.7138,1.7128,1.7125,1.7078,1.7117,1.7115,1.7113,1.7112,1.6997,1.6995,0,0,0,0,0,0,1.7218,1.7212,1.7162,1.716,1.72,1.7179,1.7176,1.7163,1.7146,1.7145,1.7165,1.7167,1.7132,1.7128,1.7124,1.7073,1.7114,1.7112,1.711,1.6998,1.6996,1.6995,0,0,0,0,0,0,1.7219,1.7213,1.7163,1.7186,1.718,1.7176,1.7162,1.7162,1.7152,1.7144,1.7143,1.7156,1.7133,1.7128,1.7093,1.7072,1.7111,1.7108,1.7,1.6997,1.6995,1.6969,0,0,0,0,0,0,1.7221,1.7213,1.7197,1.7186,1.7179,1.7133,1.716,1.716,1.7148,1.7151,1.7135,1.7133,1.7134,1.7097,1.709,1.7069,1.7106,1.7002,1.6999,1.6996,1.6972,1.6966,1.6962,0,0,0,0,0,1.7223,1.7189,1.7196,1.719,1.7159,1.7132,1.7128,1.7131,1.7146,1.713,1.7125,1.7134,1.7075,1.7093,1.7086,1.7063,1.7003,1.7,1.6996,1.6974,1.6967,1.6962,0,0,0,0,0,0,1.7195,1.7187,1.7195,1.7156,1.7145,1.7135,1.7114,1.7123,1.7105,1.7108,1.7111,1.7107,1.7071,1.7063,1.7083,1.7021,1.7041,1.7037,1.7027,1.7021,1.7016,1.7018,1.7104,0,0,0,0,0,1.7184,1.7164,1.7158,1.7125,1.7119,1.7118,1.7106,1.711,1.7097,1.7091,1.7083,1.707,1.7048,1.7034,1.7014,1.6971,1.6968,1.6952,1.6947,1.6943,1.6938,1.6918,1.6911,1.6984,1.6984,1.6984,0,0,1.7161,1.7155,1.7142,1.7119,1.711,1.7089,1.7113,1.7089,1.7073,1.7087,1.7055,1.7049,1.7033,1.6995,1.6978,1.6988,1.6918,1.6939,1.6935,1.6933,1.6914,1.6907,1.69,1.6982,1.6982,1.6983,0,0,1.711,1.7103,1.7075,1.7067,1.7055,1.7055,1.7049,1.7038,1.7036,1.7004,1.7015,1.6995,1.6958,1.6948,1.6937,1.6885,1.6894,1.6878,1.6851,1.6831,1.6825,1.682,1.6803,1.6796,1.6874,1.6874,1.6874,0,1.7082,1.7052,1.7059,1.7035,1.7025,1.704,1.7012,1.7003,1.6984,1.6977,1.6989,1.6945,1.6935,1.6896,1.6884,1.6874,1.6867,1.688,1.6826,1.6821,1.6816,1.68,1.6793,1.6872,1.6872,1.6873,1.6873,0,1.702,1.6999,1.6978,1.6963,1.6951,1.6924,1.6927,1.6913,1.6919,1.6917,1.6886,1.6875,1.6855,1.6845,1.6849,1.6807,1.6814,1.6826,1.6847,1.6807,1.6792,1.6786,1.687,1.6871,1.6871,1.6871,0,0,1.6947,1.6939,1.6931,1.6926,1.6915,1.6898,1.6873,1.6856,1.6845,1.6831,1.6811,1.6781,1.6793,1.6781,1.6784,1.6766,1.6728,1.6781,1.678,1.6772,1.6683,1.6675,1.6668,1.6734,1.6733,1.6732,1.6685,0,1.6896,1.6855,1.6862,1.6822,1.6803,1.6818,1.6797,1.6788,1.6786,1.677,1.6767,1.6747,1.6763,1.6757,1.674,1.6736,1.671,1.674,1.6715,1.6714,1.6719,1.6659,1.665,1.6606,1.6679,1.6678,1.6677,0,1.683,1.6819,1.6777,1.6773,1.6765,1.6746,1.6731,1.6715,1.6706,1.6706,1.6695,1.6702,1.6677,1.6699,1.6665,1.6685,1.6676,1.6672,1.6671,1.6668,1.6693,1.6656,1.6592,1.6586,1.6667,1.6668,1.6669,0,1.6783,1.6756,1.6729,1.6724,1.6717,1.6703,1.67,1.6692,1.6681,1.6668,1.6662,1.6645,1.6636,1.6623,1.6625,1.6641,1.6591,1.6613,1.6591,1.6591,1.6579,1.658,1.6513,1.6572,1.6572,1.6572,1.6572,0,1.6725,1.67,1.6709,1.6692,1.6664,1.6672,1.6644,1.6642,1.6635,1.6618,1.6629,1.6612,1.6617,1.66,1.6602,1.6574,1.657,1.6569,1.657,1.6568,1.6569,1.6562,1.6565,1.6571,1.6571,1.6571,1.6572,0,1.6667,1.6672,1.6644,1.6641,1.664,1.662,1.6617,1.6601,1.6602,1.658,1.6575,1.6576,1.6557,1.6559,1.6537,1.6538,1.6505,1.6509,1.6509,1.651,1.6488,1.6491,1.6415,1.6406,1.647,1.647,1.6469,0,1.663,1.6612,1.6608,1.6599,1.6595,1.6579,1.657,1.6577,1.6567,1.6557,1.6542,1.6525,1.6512,1.6482,1.648,1.6464,1.6468,1.6442,1.6465,1.6465,1.6469,1.647,1.6469,1.6438,1.6437,1.6436,1.6436,0,1.6565,1.6569,1.6556,1.6545,1.6534,1.6525,1.6517,1.6508,1.6515,1.6503,1.6486,1.6476,1.6456,1.6439,1.6425,1.642,1.6429,1.6429,1.6423,1.6422,1.6423,1.6423,1.6497,1.6431,1.6431,1.6431,1.6432,1.6432,1.6517,1.6502,1.6498,1.6484,1.648,1.6473,1.6459,1.6459,1.6445,1.6431,1.6436,1.6417,1.641,1.6392,1.6386,1.6371,1.638,1.6371,1.6369,1.6367,1.6365,1.6426,1.6368,1.6368,1.6368,1.6368,1.6368,0,1.6453,1.6452,1.6439,1.6429,1.6419,1.6431,1.6423,1.6413,1.6397,1.639,1.6379,1.636,1.6344,1.6342,1.6328,1.6316,1.632,1.6312,1.6313,1.6312,1.6357,1.6364,1.6309,1.6309,1.6309,1.6309,1.6309,1.6309,1.6418,1.6395,1.6399,1.6373,1.6372,1.6355,1.635,1.6344,1.6339,1.6319,1.6307,1.6307,1.6302,1.6288,1.6275,1.6275,1.6269,1.626,1.6261,1.6303,1.6309,1.6314,1.6321,1.6258,1.6258,1.6218,1.6217,1.6217]}]]